501  
ASUS41 KRLX 010610  
RWRRLX  
WEST VIRGINIA REGIONAL WEATHER ROUNDUP  
NATIONAL WEATHER SERVICE CHARLESTON WV  
200 AM EDT MON MAY 01 2017  
 
NOTE: "FAIR" INDICATES FEW OR NO CLOUDS BELOW 12,000 FEET WITH NO  
SIGNIFICANT WEATHER AND/OR S TO VISIBILITY
.  
 
WVZ003-010700-  
NORTHERN PANHANDLE OF WEST VIRGINIA  
 
CITY SKY/WX TMP DP RH WIND PRES REMARKS
 
WHEELING MOCLDY 75 54 47 S13 29.83F  

 
 
WVZ009-010700-  
NORTHWEST WEST VIRGINIA  
 
CITY SKY/WX TMP DP RH WIND PRES REMARKS
 
PARKERSBURG CLOUDY 76 55 48 S9 29.85F  

 
 
WVZ006-010700-  
WESTERN WEST VIRGINIA  
 
CITY SKY/WX TMP DP RH WIND PRES REMARKS
 
HUNTINGTON CLOUDY 77 54 44 S9 29.81F  

 
 
WVZ015-010700-  
WEST CENTRAL WEST VIRGINIA  
 
CITY SKY/WX TMP DP RH WIND PRES REMARKS
 
CHARLESTON MOCLDY 75 55 49 S8 29.85F  

 
 
WVZ022-031-010700-  
NORTH CENTRAL WEST VIRGINIA  
 
CITY SKY/WX TMP DP RH WIND PRES REMARKS
 
CLARKSBURG CLOUDY 74 55 51 S9 29.89F  
MORGANTOWN CLOUDY 74 54 49 S7 29.90F  

 
 
WVZ025-035-042-045-010700-  
SOUTHERN WEST VIRGINIA  
 
CITY SKY/WX TMP DP RH WIND PRES REMARKS
 
BECKLEY PTCLDY 68 58 70 SE12 29.99F  
LOGAN NOT AVBL  
BLUEFIELD CLOUDY 67 57 70 S12G21 30.02F  
LEWISBURG CLOUDY 65 59 81 CALM 30.02F  

 
 
WVZ047-010700-  
NORTHERN MOUNTAINS OF WEST VIRGINIA  
 
CITY SKY/WX TMP DP RH WIND PRES REMARKS
 
ELKINS PTCLDY 69 55 60 SE8 29.96F  

 
 
WVZ052-010700-  
EASTERN PANHANDLE OF WEST VIRGINIA  
 
CITY SKY/WX TMP DP RH WIND PRES REMARKS
 
MARTINSBURG CLEAR 64 61 90 W3 29.94F  
PETERSBURG CLOUDY 72 62 71 E5 29.94F  

 
 
 
CLICK HERE TO GO TO PREVIOUS BULLETINS.

The Nexlab WV Page
The Nexlab OH Page
The Nexlab KY Page
The Nexlab VA Page Main Text Page